GFSNIL_con_sbcape_000.txt.gz
CAPE
4043 3270 3059 2946 1892 1295 795 386 610 1821 857 436 298 231 33 2 10 29 36 58 153 58
3982 3634 2993 2841 2783 1785 1467 432 1064 1139 729 271 366 93 45 2 9 8 12 12 67 156
3331 3535 3331 3158 3231 2256 1888 1403 918 741 323 286 244 94 143 25 11 10 0 0 7 73
2941 3050 3370 3304 3428 3017 2210 1396 947 789 263 277 232 175 235 186 9 22 4 3 97 264
2913 2889 3140 3390 3058 2317 1729 973 1038 534 397 305 173 196 298 185 10 24 0 47 235 396
2837 2930 3067 2819 1697 1671 863 649 360 432 663 738 695 276 358 399 294 113 64 187 312 363
2839 2752 2734 2004 427 263 240 325 199 430 274 272 535 553 512 410 401 188 136 321 439 586
3048 2663 1991 1267 321 165 152 438 7 33 0 13 629 317 735 355 259 290 394 499 642 769
3421 2400 1304 960 778 897 745 392 32 2 10 32 155 24 19 158 321 432 656 831 921 998
3019 1968 1223 889 856 794 568 327 197 134 133 62 329 58 29 40 242 412 797 1065 950 722
2649 1727 1612 1240 1160 911 461 227 364 304 191 167 253 251 0 2 449 905 1094 824 526 548
2075 1479 1216 1242 1149 1114 838 562 644 657 555 552 646 0 0 0 474 859 891 593 320 245
1747 1680 1367 1426 1312 1146 1160 826 471 598 664 330 1108 0 0 0 435 745 518 420 222 5
1905 2116 2034 1818 1347 1103 959 855 931 781 1051 796 369 638 0 0 549 224 217 349 845 330

GFSNIL_con_sbcape_003.txt.gz
CAPE
4714 2860 2494 2989 2162 1363 964 741 1571 1665 1642 1141 273 287 234 27 1 306 33 30 641 47
4729 4552 2696 3704 3685 2136 2437 846 521 1240 1729 1320 579 426 399 39 510 35 9 192 738 211
4420 4611 4279 4372 4080 3445 2808 1857 1860 1267 1324 1102 937 982 915 506 528 343 16 4 541 688
3928 4058 4307 4090 3913 3729 2947 2798 2110 2168 1628 974 740 395 475 363 153 730 774 602 285 544
4420 4100 3974 4155 4101 3984 3537 2901 2194 1975 1412 665 606 624 678 274 108 234 103 134 710 514
3912 4201 4041 4123 4123 3926 3778 2884 1813 1647 1344 794 656 764 684 682 458 188 142 130 657 611
4234 4034 3825 4120 3908 3373 3141 2492 1550 1372 951 803 602 477 445 494 390 588 506 460 746 822
4453 4081 3903 3977 3938 3153 2614 2010 1180 919 703 585 318 441 709 452 466 970 656 499 433 855
4646 4294 3901 3835 3346 2302 2179 1548 999 443 424 427 101 0 38 465 239 863 911 738 756 1150
4821 4254 3346 3105 2694 2159 1819 1510 1108 483 522 337 487 1 0 0 256 487 830 1167 1019 1099
4618 3683 2660 2195 2057 1955 2025 1846 1286 662 862 560 486 0 0 0 216 328 571 885 1000 1246
4048 3286 2443 1826 1785 2185 2130 2330 1209 584 743 754 660 0 0 0 434 612 999 1142 1050 1268
3732 2984 2198 1835 1891 2193 2286 1915 875 610 885 769 1178 0 0 0 316 285 409 1733 1379 145
2930 2524 1943 2056 2288 2019 1883 1455 857 718 1104 1509 1087 667 0 0 379 190 701 590 888 262

GFSNIL_con_sbcape_006.txt.gz
CAPE
3378 3041 3075 3519 2535 2563 1706 1884 1771 2166 2473 2308 1100 1049 1057 827 535 713 601 191 562 475
3723 3384 3006 3232 3227 2786 2354 2348 2193 1935 2350 1813 1382 1167 1344 404 571 608 993 847 669 470
4212 3704 3381 3100 3417 2363 2513 2479 1646 2117 1674 1848 1118 1331 1217 596 852 674 558 434 614 592
4142 4000 3651 4123 3839 2831 3090 2119 2152 1671 1845 1708 1300 1257 940 681 580 623 679 524 651 547
4113 4125 4006 3507 3875 3197 3542 2541 2003 2129 1907 1700 887 1112 800 509 159 734 684 842 890 675
3966 3989 3936 3804 3289 3560 3352 2835 2572 2076 1925 1306 768 933 670 573 569 700 523 530 712 720
3616 3690 3627 3727 3624 3445 3387 2987 2920 2175 1906 1245 751 683 624 682 686 660 621 918 933 1039
3873 3699 3673 3651 3695 3545 3754 3581 3256 2284 1796 1178 617 560 698 656 665 784 868 672 999 965
3777 3991 3843 3676 3868 3780 3965 3474 3008 1751 1312 746 487 306 304 723 740 888 940 640 1000 1228
3856 4180 3919 3848 3902 4051 3750 3062 2374 1402 833 441 575 4 18 285 564 561 871 675 1049 678
4259 4287 4050 3961 3915 3938 3077 2521 2206 1381 483 411 560 85 3 1 63 406 851 710 830 307
4794 4511 4336 3990 3665 3252 2494 2239 1995 1191 592 627 706 0 0 0 3 157 425 655 621 769
4808 4412 3628 3215 2622 2115 2311 2333 2279 1347 975 702 1226 0 0 0 105 321 556 741 905 313
4665 3946 2878 2285 2092 2098 2392 2648 1797 844 736 758 1011 641 0 0 335 488 528 444 713 874

GFSNIL_con_sbcape_009.txt.gz
CAPE
2068 1330 1145 1618 1638 1467 1373 1424 1188 1191 812 337 80 278 269 79 88 52 1 10 0 0
2056 2003 1726 1712 2070 1355 913 1098 1072 1271 1021 530 187 258 185 102 11 129 54 0 0 0
2368 1798 1739 1657 1886 1913 1063 1254 833 1329 1390 946 220 169 175 38 112 29 32 6 5 0
2694 2268 1932 2138 1950 1678 1426 1127 1131 1015 1455 963 343 325 281 16 24 149 0 0 0 44
2998 2765 2401 2021 2124 1970 1564 1122 1236 1253 851 1028 560 355 358 62 111 28 79 15 8 3
2972 3083 2952 2358 2668 2555 1633 1611 932 799 963 887 697 428 417 101 11 123 59 94 88 59
3039 3033 3072 2913 2331 2703 2458 1881 1086 947 946 968 663 405 382 200 106 126 132 60 97 84
3054 3060 3115 3052 3002 2375 2356 2130 1888 1248 1209 836 452 347 273 287 266 213 183 95 277 166
2981 2954 3076 3027 2996 2879 2456 2384 2145 1681 1268 923 504 402 301 291 327 300 289 310 427 81
2737 2926 2875 2937 2844 2944 2827 2838 2592 1728 1143 780 456 258 232 333 276 266 267 361 435 339
2934 2842 3088 3036 2962 3146 2993 2828 2218 1426 796 505 281 87 3 59 222 224 195 426 389 176
2682 3057 3269 3169 3067 3221 2996 2263 1931 1173 485 229 233 73 0 0 35 47 62 125 165 85
2558 3046 3467 3238 3045 2603 1972 1653 1554 1031 288 164 258 100 29 0 0 0 0 5 94 120
3618 3634 3049 2429 1754 1483 1564 1625 1673 1291 342 214 290 12 0 0 0 0 0 8 40 58

GFSNIL_con_sbcape_012.txt.gz
CAPE
1237 1111 975 373 1032 1141 1291 1349 991 1076 560 44 0 0 0 0 0 1 0 0 0 0
1554 1307 1123 849 946 1129 1014 1099 913 1058 437 65 3 2 10 0 0 18 0 0 0 0
1434 1625 1211 828 1206 1064 873 1003 915 825 540 146 14 72 15 4 0 9 7 0 0 0
1645 1384 1496 1230 1256 1410 846 587 859 711 662 305 87 26 0 1 3 0 6 5 0 0
2035 1836 1510 1410 1453 1197 1201 643 823 710 897 655 243 32 80 0 0 5 0 0 0 0
2240 2151 1864 1511 1544 1479 1253 698 697 633 1007 862 452 157 85 11 0 0 4 0 0 0
2479 2343 2279 1920 1640 1556 1604 984 820 778 711 972 686 251 207 73 0 0 0 0 0 0
2607 2560 2543 2338 2043 1773 2066 1292 939 604 784 620 701 493 255 188 31 0 1 1 0 0
2782 2703 2679 2718 2566 2037 1957 1990 1072 724 524 591 716 583 241 238 134 22 3 0 0 25
2776 2725 2687 2723 2700 2599 2070 1733 1514 923 773 691 732 500 52 91 184 66 53 0 0 45
2910 2750 2690 2729 2768 2642 2575 2044 1885 1328 1006 856 487 87 34 111 156 83 17 15 35 172
2828 2622 2684 2611 2764 2582 2648 2413 2250 1564 1119 859 562 0 0 42 89 125 33 21 142 233
2694 2543 2547 2669 2688 2700 2665 2610 1848 1352 1059 668 327 0 1 0 0 12 3 12 18 3
2543 2563 2540 2745 2738 2842 2455 2189 1713 987 297 154 164 19 9 0 0 0 0 0 0 1

GFSNIL_con_sbcape_015.txt.gz
CAPE
781 694 601 270 410 550 891 1024 1014 834 687 323 0 0 0 0 0 0 0 0 0 0
962 860 699 330 387 557 768 1005 886 915 774 248 9 0 0 0 0 0 0 0 0 0
1030 927 759 544 448 597 744 842 746 931 721 216 18 0 0 0 0 0 0 0 0 0
1110 1045 876 630 729 749 690 655 817 816 723 274 30 0 0 0 0 0 0 0 0 0
948 1091 1184 930 762 921 877 606 729 659 670 369 87 17 6 0 0 0 0 0 0 0
1203 1109 1236 1281 1127 962 1088 626 695 575 674 449 157 37 7 0 0 0 0 0 0 0
1441 1485 1249 1249 1241 1270 1126 872 621 646 732 706 432 171 40 2 0 0 0 0 0 0
1604 1673 1650 1509 1285 1211 1185 1089 816 566 617 769 641 351 188 97 51 3 0 0 0 0
1851 1923 1906 1860 1642 1367 1270 1287 801 740 590 547 741 604 234 217 131 17 4 1 0 0
1924 2109 2144 2077 1955 1703 1428 1514 942 742 624 568 578 516 172 119 166 34 4 42 13 0
2203 2178 2261 2305 2233 2070 1689 1784 1139 879 545 638 641 104 80 175 151 80 107 64 12 0
2414 2379 2439 2427 2483 2407 2156 1729 1669 1193 953 930 832 61 30 28 144 143 114 84 0 0
2588 2525 2489 2527 2485 2548 2563 2141 1833 1666 1402 1303 974 1 1 28 227 193 65 0 0 1
2613 2692 2574 2480 2479 2602 2619 2399 2174 2049 1680 1366 938 1 1 11 118 66 0 0 0 0

GFSNIL_con_sbcape_018.txt.gz
CAPE
408 376 380 302 339 395 541 765 895 786 730 488 104 62 0 0 0 0 0 0 0 0
496 517 472 444 297 404 513 690 827 874 763 579 109 58 0 0 0 0 0 0 0 0
682 667 621 552 331 401 452 810 841 949 898 601 177 43 0 0 0 0 0 0 0 0
862 829 776 649 506 480 551 621 867 938 900 624 245 75 4 0 0 0 0 0 0 0
988 962 904 761 725 599 562 614 823 842 943 730 354 141 71 3 0 0 0 0 0 0
1043 1017 972 878 863 717 729 631 743 833 905 779 491 216 131 89 43 1 0 0 0 0
945 1021 1099 1056 968 767 871 742 792 847 936 871 612 346 253 163 102 80 36 0 0 0
992 962 1023 1222 1172 1043 973 972 813 916 931 947 726 520 294 231 163 127 98 19 1 0
1193 1245 1205 1144 1244 1255 1144 1192 946 865 976 942 908 624 232 286 310 225 146 72 0 26
1386 1454 1525 1426 1297 1253 1234 1228 1064 1016 985 1020 1082 537 225 182 522 431 289 192 104 55
1620 1647 1658 1709 1599 1488 1360 1304 1248 1122 1021 985 931 476 188 135 744 497 279 214 229 229
1755 1825 1848 1915 1898 1802 1647 1467 1480 1304 1044 1047 1062 363 46 78 650 495 313 279 243 196
1906 1902 1926 2117 2107 2035 1926 1751 1737 1374 1087 983 1238 62 0 85 544 392 317 311 241 6
2083 2175 2097 2237 2337 2358 2295 2115 1926 1612 1417 1394 1152 253 0 5 459 507 414 140 7 16

GFSNIL_con_sbcape_021.txt.gz
CAPE
2244 1790 1941 2123 1479 1408 1411 1566 1971 2287 2290 2248 2133 1981 1553 1192 898 531 425 345 242 172
2094 2030 1928 2187 2214 1532 2075 1541 1860 2146 2300 2317 2194 2002 1625 1237 936 455 416 289 326 208
1929 2010 2058 2182 2211 2130 2058 1880 1725 1982 2208 2316 2219 2020 1735 1435 1055 571 319 176 306 219
1934 1945 2030 2096 2240 2287 2214 2196 2149 2158 2137 2208 2216 2027 1825 1683 1244 685 588 279 303 323
2119 2103 2089 2135 2211 2342 2374 2153 2644 2559 2228 2236 2277 2083 1837 1756 1347 980 790 642 342 235
2201 2245 2209 2209 2286 2374 2404 2412 1954 2515 2629 2220 2170 2109 1874 1921 1732 1259 1087 832 528 409
2253 2276 2294 2330 2401 2406 2454 2436 2491 2566 2582 2400 2097 2064 1911 1845 1897 1578 1250 1073 643 386
2327 2394 2447 2453 2452 2448 2486 2382 2461 2607 2616 2444 2172 1909 2137 1868 1866 1826 1430 1156 752 439
2312 2512 2518 2554 2567 2541 2497 2482 2514 2507 2586 2571 2050 1423 992 1687 2102 1919 1765 1593 1051 607
2280 2447 2512 2537 2602 2553 2534 2494 2547 2510 2576 2624 2621 933 393 344 2033 1903 1978 1802 1459 919
2387 2423 2497 2462 2555 2678 2644 2576 2655 2554 2582 2679 2599 725 218 148 1590 2117 2149 1820 1609 1290
2442 2456 2578 2615 2592 2623 2708 2768 2692 2698 2684 2627 2707 655 91 84 1415 2167 2126 1822 1574 1370
2652 2708 2754 2807 2891 2820 2738 2723 2593 2771 2774 2232 2710 731 6 56 1665 2089 1871 1711 1488 448
2867 2910 2984 3082 3100 3120 3081 2828 2875 2856 2813 2817 2341 2514 0 0 2003 2033 1322 1333 1125 1392

GFSNIL_con_sbcape_024.txt.gz
CAPE
3690 2379 2392 2902 2187 2017 1591 1683 1736 2241 2513 2598 2564 2786 2802 2628 2227 1898 1593 958 309 20
3675 3483 2524 3390 3203 2314 3012 1802 1926 2085 2561 2540 2654 2761 2866 2599 2447 1946 1791 1186 672 203
3199 3653 3620 3761 3583 3526 2925 2876 2216 2401 2431 2462 2628 2810 2958 2553 2511 2315 1694 1039 679 549
3078 3017 3152 3246 3779 3880 3181 3529 2955 2885 2508 2371 2601 2847 3091 3146 2385 2498 2140 1309 908 831
3562 3387 3061 3535 3561 3894 3768 3678 3624 3142 2900 2598 2424 3039 2996 3021 2272 2479 2308 1887 1337 1005
3091 3176 3444 3747 3489 3773 3924 3946 2880 3444 3800 3410 2916 3103 2944 3178 2931 2559 2501 2202 1862 1419
3525 3497 3551 3727 3761 3828 3998 4041 3883 3943 4100 3680 3128 2940 2911 2908 3019 2943 2628 2555 2222 1742
3581 3817 3829 3836 3937 3869 4042 3965 4086 4048 4112 3946 3046 2451 3426 3443 3007 3324 3165 2996 2558 2157
3729 3999 3985 4071 4112 4102 4058 4102 4166 3980 4092 4098 3067 1851 1508 2625 3508 3680 3787 3482 2988 2427
3859 3969 4129 4059 4184 4147 4154 4156 4213 4167 4155 4254 4129 1502 727 1105 3086 3583 3553 3739 3204 2651
3560 3827 3815 4179 4179 4206 4134 4016 4130 4131 4180 4251 4113 2159 336 424 2679 3523 3536 3122 3093 3158
3482 3524 3769 4153 4213 4189 4073 4095 4082 4089 4269 4274 4165 1816 259 215 2456 2666 3812 3386 3195 3291
3826 3919 3879 4046 4280 4297 4238 3987 3341 3824 4109 3590 4165 2313 72 256 2174 2590 2668 3550 3896 1971
3898 4107 4100 4291 4390 4181 4078 3638 4119 4088 4134 4306 3767 3948 0 0 2716 2548 2544 2301 2638 2919

GFSNIL_con_sbcape_027.txt.gz
CAPE
4159 2668 2298 2899 1785 1554 1263 1324 3007 3842 3557 3435 3392 3159 3760 2811 2499 2958 2008 1565 1431 71
4072 3798 2812 3075 3540 2602 2878 1622 3193 3551 3592 3485 3566 3817 3944 2464 3348 3149 2719 2290 1847 502
4203 4227 3912 4062 4191 3164 3371 3768 3496 3207 3314 3455 3732 3924 4201 3067 3456 3724 2565 1716 2607 1782
3963 3977 4178 4005 4245 4148 4237 4479 3894 4220 3691 3721 3817 4065 4275 3806 3485 3751 3568 3003 2842 2248
4009 3926 4012 4114 4002 4316 4344 4300 4581 4332 4289 4130 3814 4017 4215 3946 2684 3727 3415 2977 2882 2053
4056 4042 3877 4092 4127 4230 4362 4408 4203 4368 4539 4418 4009 4011 4278 4243 3966 3769 3675 3400 3277 2546
4100 4009 4076 4126 4294 4255 4414 4425 4389 4353 4467 4461 4335 3944 3947 4083 4129 3947 3685 3677 3563 3229
4075 4280 4353 4339 4309 4348 4407 4411 4463 4443 4410 4591 4420 3556 3926 3769 4018 4228 4022 3822 3849 3640
4110 4402 4489 4520 4526 4632 4496 4550 4546 4510 4401 4378 4221 2771 1899 2999 3808 4224 4401 4206 4265 3999
4198 4337 4558 4674 4698 4612 4628 4631 4608 4520 4512 4464 4480 2670 1085 1350 3603 4059 4294 4405 4295 3918
4063 4403 4575 4672 4674 4719 4655 4594 4621 4616 4654 4573 4422 3195 744 555 2867 3701 4243 4197 4263 4300
4196 4402 4563 4605 4630 4678 4648 4635 4556 4629 4671 4642 4540 2790 1140 48 2671 3184 3566 4132 4177 4078
4447 4460 4573 4618 4731 4720 4705 4654 4486 4562 4620 4280 4652 3862 944 199 2905 3104 3261 3662 4175 2630
4609 4724 4678 4693 4812 4855 4804 4512 4685 4583 4602 4683 4501 4576 1249 5 3336 3099 3109 3263 3443 3769

GFSNIL_con_sbcape_030.txt.gz
CAPE
3456 2323 1688 3251 1727 1872 1806 1644 2990 2584 3098 3156 3102 3103 3711 2984 2964 3077 2682 2977 1871 1224
2534 3221 1824 2213 2871 2485 2409 2316 3280 2763 2789 2773 3130 3166 3308 2884 3245 3330 2872 2540 2628 1753
2722 2968 2943 2048 2846 2331 2873 2544 3824 3120 3062 3097 3164 3514 3367 3225 3197 3003 3149 2347 2154 1754
3443 2777 2737 2882 2612 3500 2564 4129 2858 4036 3351 3236 3180 3267 3530 3032 2804 3364 2875 2706 2576 1767
3495 3648 3254 2546 2862 3135 3921 2935 4060 3603 3444 3431 3123 3209 3183 3222 2415 3046 3125 2774 2675 2067
3585 3489 3603 3535 2659 3309 3198 3931 3094 4036 3804 3283 3250 3126 3342 3204 3147 2522 3287 3071 2633 2307
3757 3562 3525 3484 3570 2961 3502 3276 3674 3471 3601 3814 3351 3275 3157 3258 3312 3099 2857 3252 3055 2653
3624 3915 3700 3645 3678 3786 3394 3481 3416 3551 3610 3509 3703 3438 3216 3161 3278 3385 3155 3005 3274 3007
3521 3713 4075 3933 3857 3941 3884 3771 3860 3789 3656 3689 3613 3316 2745 2902 3197 3387 3332 3269 3116 3185
3583 3736 3932 4094 4111 3970 4049 4023 4004 3992 3968 3713 3717 3073 1954 1863 3103 3207 3283 3318 3353 3278
4077 3856 4021 4085 4181 4212 4180 4216 4117 4176 4186 4068 3918 3274 1224 976 2589 3091 3147 3229 3301 3280
4328 4192 4157 4236 4245 4299 4357 4288 4317 4257 4301 4294 4144 3112 1515 192 2216 2681 2946 3250 3330 3345
3759 4187 4207 4309 4399 4413 4467 4442 4404 4393 4341 4226 4298 3968 1429 234 2754 2636 2640 2904 3228 2631
4460 4157 4249 4444 4552 4550 4572 4530 4490 4442 4442 4398 4297 4292 2332 11 3074 3291 2960 2716 2786 2957

GFSNIL_con_sbcape_033.txt.gz
CAPE
2080 1264 786 1429 497 1104 961 1402 1423 1807 1956 1627 1745 1815 1386 1602 1654 1840 1170 1601 517 33
1249 2220 805 503 1366 434 1118 765 1471 1612 2268 1800 1729 1663 2062 1791 1523 1983 1519 1096 1344 448
1260 1456 1854 681 615 1866 665 1100 1044 1711 1621 1958 2060 1903 1738 2169 2068 1759 1782 1360 1294 1120
1612 1244 1842 1512 648 1244 1583 1424 1300 1936 1664 1901 1858 2275 1931 1733 1999 2208 1901 1680 1410 1167
1990 1769 1324 1950 1718 582 1739 1477 2420 2359 2100 2180 2009 2012 2336 2121 2124 1783 2018 1964 1514 1283
2159 2273 1802 1565 1624 2011 926 2167 1542 2544 2463 2343 2267 2282 2170 2308 2358 1886 2021 2052 1886 1615
2487 2474 2514 2105 1770 1437 2048 1708 2780 1710 2409 2446 2422 2242 2356 2309 2307 2316 1791 2183 2177 1927
2775 2675 2645 2587 2629 2325 1528 2165 2098 2621 2039 2607 2438 2474 2315 2406 2438 2395 2393 1883 2309 2278
2856 2818 2753 2772 2619 2784 2599 1892 2427 2369 2369 2601 2805 2799 2165 2396 2513 2508 2485 2505 2131 2476
2840 2868 2934 2844 2871 2730 2798 2864 2405 2305 2697 2430 2728 2714 1607 1540 2588 2543 2584 2596 2605 2370
2764 2968 2971 3121 2933 3067 2940 3051 3137 2988 2656 3034 2876 2719 1611 760 2332 2660 2556 2724 2711 2657
2664 2814 3000 3062 3331 3248 3282 3200 3236 3324 3266 3186 3244 2762 1843 370 1763 2565 2710 2689 2674 2806
2826 3062 3005 3171 3264 3402 3459 3484 3496 3429 3561 3411 3441 3350 1699 339 2411 2591 2659 2712 2628 2380
3354 3440 3559 3320 3365 3554 3637 3695 3674 3761 3691 3715 3587 3514 2161 563 2379 2989 2989 2835 2677 2528

GFSNIL_con_sbcape_036.txt.gz
CAPE
807 732 574 224 130 173 722 564 640 1331 1324 1263 1178 1030 762 724 914 1149 640 727 55 1
1057 915 807 409 335 110 628 959 804 1022 1503 1249 1347 995 1124 849 951 1517 1072 565 828 88
1008 1509 996 497 435 881 386 721 1172 1045 1526 1441 1289 1162 1247 1258 1052 1215 1331 917 598 632
799 798 1631 818 175 247 779 482 659 1189 1193 1652 1462 1270 1128 1335 1636 1198 1293 1429 972 646
1323 856 839 1626 829 335 424 929 505 1218 1288 1429 1677 1616 1420 1285 1502 1851 1426 1499 1348 1071
1565 1302 937 990 1682 1064 439 664 1212 1476 1441 1370 1545 1628 1826 1610 1488 1452 1749 1581 1521 1470
1655 1688 1471 1112 995 1666 1357 354 956 1536 1896 1701 1730 1586 1653 1920 1881 1714 1612 1608 1648 1594
1634 1817 1925 1774 1299 1147 1336 1655 780 1156 1431 2165 2053 1996 1926 1825 1843 2035 2019 1632 1834 1774
2117 1932 2023 2142 2089 1604 1399 1171 1667 1551 1904 1642 2238 2301 1802 1993 2067 1948 1914 1983 1730 1712
2278 2424 2320 2276 2312 2325 2169 1849 1263 1378 1889 1956 2028 2129 1338 1263 2090 2127 2098 2057 2022 2001
2521 2521 2583 2548 2455 2460 2450 2578 2364 1775 1609 2125 2062 1983 1142 558 1847 2236 2206 2258 2225 2173
2495 2782 2740 2672 2688 2654 2681 2566 2587 2665 2382 1954 2062 2077 1317 250 1415 2067 2463 2517 2348 2402
2243 2617 2780 2794 2795 2878 2764 2798 2710 2667 2778 2735 2591 2195 1165 252 2087 2242 2355 2510 2650 2076
1794 2222 2622 2753 2867 2898 3023 2901 2921 2939 2866 2975 2724 2886 1474 160 2202 2733 2780 2715 2761 2724

GFSNIL_con_sbcape_039.txt.gz
CAPE
0 1 28 29 20 2 117 390 565 905 959 796 691 733 540 316 262 603 229 423 0 0
148 171 161 55 5 9 71 277 309 714 1067 1020 949 784 668 468 459 877 658 267 324 16
397 377 352 161 69 0 46 466 469 503 831 1038 1035 863 763 663 539 662 887 774 331 389
623 613 551 489 202 346 19 306 710 619 719 985 1021 950 853 923 816 704 804 1043 830 477
808 954 998 741 318 157 411 187 335 767 797 971 1113 1041 965 983 1332 1048 916 965 1101 1038
707 668 874 1369 1151 167 52 365 301 487 790 943 1193 1286 1159 1146 1047 1334 1416 1267 1173 1306
1072 947 693 661 1132 1183 354 245 512 658 861 975 1055 1333 1441 1413 1265 1120 1296 1576 1557 1506
1327 1277 1113 845 723 1124 1169 721 575 714 1042 1244 1214 1306 1351 1545 1579 1414 1325 1277 1408 1519
1265 1373 1382 1250 1012 790 1076 1441 1069 644 849 1216 1574 1679 1290 1415 1527 1643 1648 1610 1445 1439
1395 1336 1483 1562 1484 1280 973 1010 1301 1402 1038 1003 1102 1361 1029 865 1737 1693 1652 1669 1670 1710
1762 1656 1553 1661 1827 1823 1632 1304 1200 1088 1229 1411 1468 1515 513 386 1483 1944 1945 1864 1795 1743
1982 2001 2048 1992 1933 2063 2107 2101 1949 1732 1332 1135 1339 1422 693 71 1212 1815 2018 2054 1990 2044
2126 2223 2235 2361 2368 2262 2308 2319 2352 2450 2402 1920 1573 1537 454 5 1413 1712 1875 2112 2231 2008
2142 2281 2466 2446 2461 2510 2516 2556 2539 2501 2428 2478 2146 2148 607 10 1541 1979 2112 2182 2283 2362

GFSNIL_con_sbcape_042.txt.gz
CAPE
0 0 0 0 0 0 62 314 519 699 822 715 668 722 655 333 339 663 518 710 102 0
0 0 0 0 2 0 7 223 441 628 927 906 827 844 820 727 719 758 765 544 577 176
0 0 1 1 0 0 2 255 384 507 795 989 1034 995 920 864 672 735 980 910 637 558
97 72 117 90 24 0 0 155 332 398 576 899 1069 1142 1067 1121 1018 846 962 1025 1095 1070
244 266 267 264 128 86 8 145 417 513 565 713 947 1047 1151 1218 1353 1181 1142 1121 1139 1321
331 430 445 450 350 184 264 157 265 500 706 776 978 1098 1133 1203 1325 1475 1471 1402 1305 1378
482 583 679 682 641 161 271 484 413 498 613 874 1025 1262 1343 1329 1344 1386 1578 1670 1569 1530
606 636 697 905 1136 741 287 392 453 578 656 845 1028 1141 1461 1595 1560 1520 1483 1539 1685 1771
773 749 710 619 640 1189 1094 853 657 605 739 843 966 891 803 1295 1726 1757 1690 1627 1566 1625
1069 1116 1050 931 778 733 1011 1252 1125 856 898 979 1177 1017 444 421 1574 1740 1827 1847 1823 1775
1295 1299 1308 1288 1192 1041 909 951 1283 1397 1186 983 1025 857 226 104 1201 1673 1792 1844 1924 1964
1452 1371 1369 1462 1506 1458 1413 1195 1066 1137 1326 1471 1420 693 197 0 1085 1694 1846 1969 2061 2056
1693 1653 1563 1544 1599 1747 1829 1856 1754 1574 1484 1205 1361 1139 238 0 1148 1396 1615 1992 2175 1745
1901 1927 1943 1935 1913 1910 2053 2155 2255 2308 2280 2180 1571 1624 459 0 1208 1792 1936 1999 2141 2325

GFSNIL_con_sbcape_045.txt.gz
CAPE
1575 779 757 1244 722 691 534 768 1422 1933 1927 2112 2230 2225 2196 1979 1986 1975 1947 1884 1792 1178
1408 1365 990 1538 1246 747 1192 600 1326 1760 1886 1980 2083 2212 2292 2054 2301 2105 2270 2161 2213 1917
1221 1322 1374 1376 1444 1406 903 991 990 1783 1893 2061 2097 2225 2394 2086 2313 2550 2347 2063 2182 2167
981 1012 1143 994 1094 1594 1159 1319 1550 1862 1947 2063 2133 2249 2476 2396 2245 2552 2633 2466 2300 2389
964 1021 875 1264 997 1387 1669 1389 1620 1702 1908 2031 2060 2141 2333 2266 1998 2454 2522 2597 2608 2458
986 909 1311 1427 1385 1450 1605 1718 1325 1560 1775 1998 2002 2122 2237 2312 2378 2411 2398 2485 2695 2727
1267 1343 1304 1647 1783 1341 1857 1816 1769 1764 1902 1849 1979 2062 2155 2268 2423 2495 2472 2561 2612 2709
1479 1609 1765 1940 2011 1762 1741 1976 2018 1905 1743 1827 1801 1703 2128 2343 2521 2626 2672 2677 2737 2771
1737 1855 1941 2108 2182 2040 1971 1953 2180 1835 2059 1924 1656 1051 1025 1738 2301 2742 2869 2824 2806 2815
2022 2040 2139 2246 2401 2534 2298 2061 2213 1922 1983 2199 2480 1263 436 368 1927 2421 2699 2897 2954 2895
2198 2173 2260 2320 2382 2575 2514 2608 2519 2198 2295 2304 2526 1517 402 2 1411 2602 3004 3092 2898 3199
2324 2357 2427 2402 2402 2197 2084 2151 2419 2321 2486 2460 2532 1196 556 17 1615 2093 2889 2997 2970 3002
2531 2611 2690 2809 2824 2820 2466 2136 2003 2115 2396 2239 2773 1948 50 0 1601 2071 2022 2899 3132 2071
2819 2899 3000 3114 3202 2839 2631 2832 2669 2494 2596 2474 2288 2423 683 0 1639 1986 2214 2294 2388 2550

GFSNIL_con_sbcape_048.txt.gz
CAPE
2191 967 978 1494 1062 834 541 546 877 2160 2208 2414 2371 2425 2527 2549 2147 2071 2077 2051 1830 682
2344 2152 1370 2390 1474 1063 1541 642 866 1173 1930 1920 2205 2440 2495 2037 2485 2298 2400 2424 2416 2109
1461 2092 1981 1753 2192 1843 1234 1471 948 1358 1414 1604 2092 2312 2612 2125 2365 2612 2476 1934 2115 2525
1429 1377 1615 1517 1629 1792 1766 1660 1930 1414 1365 1792 2232 2401 2644 2476 2122 2714 2755 2605 2343 2578
1770 1762 1350 1712 1629 1883 1967 1939 2036 1862 1740 1707 1867 2348 2690 2608 2041 2510 2636 2691 2695 2678
1330 1349 1827 2022 1901 2143 2003 2151 1929 1965 2068 2007 1796 2288 2594 2655 2556 2449 2590 2737 2765 2842
1623 1701 1582 2437 2457 1906 2442 2265 2220 2153 2122 2178 1877 1826 2270 2471 2643 2527 2552 2817 2846 2944
2458 2441 2509 2778 2746 2336 2708 2456 2427 2413 2252 2235 1948 1534 2124 2096 2195 2558 2696 2774 3030 3108
3012 3033 3057 3239 3339 3164 2898 2840 2617 2481 2417 2348 1931 991 835 1200 1818 2223 2658 2889 3018 3155
3216 3288 3357 3383 3586 3478 3420 3005 2869 2606 2773 3171 3090 1462 514 559 1681 1767 2441 3083 2842 2604
3404 3253 3539 3631 3702 3858 3273 3453 3294 2894 3398 3600 3312 1968 914 29 1936 2324 2535 2769 2890 3409
3405 3333 3362 3484 3638 3428 3243 3312 3209 2980 3532 3733 3773 1665 1135 137 1993 2185 3004 2849 3112 3563
3571 3572 3592 3673 3728 3798 3347 3204 2877 2995 3378 2875 3425 2567 326 331 2202 2474 2150 3332 3928 2248
3437 3822 3680 4051 4039 3914 3382 3378 3686 3376 3697 3685 3245 3236 772 0 2349 2139 2083 2022 1939 2161

GFSNIL_con_sbcape_051.txt.gz
CAPE
2413 662 194 1373 777 519 336 506 3533 2537 2185 2421 2516 2176 2778 2188 1983 2350 1860 1899 2681 1125
2397 1627 540 1169 2406 1517 1865 634 1654 2309 2203 2234 2041 2811 3266 1823 2405 2750 2486 2675 2455 1965
2591 2774 2210 2527 3129 2310 2347 2502 1366 1749 1787 2049 2503 2703 3776 2631 3186 3130 2309 1659 3757 3445
1994 2142 2524 2859 3057 3072 2771 3157 2950 2433 2315 2322 2293 2936 3858 3620 2704 2769 3373 3074 2713 3094
2195 2141 2092 2457 2875 3291 3450 2907 3098 3081 2904 2621 2453 3352 3583 2795 2274 2751 2935 2947 3470 2614
2079 2342 2095 2737 2721 3223 3449 3601 2322 3304 3539 3035 2723 3310 3596 3690 3175 2905 2934 3041 3461 3304
2407 2444 2233 2556 3061 3126 3537 3717 3574 3761 3664 3241 2987 2868 2817 3280 3489 3450 2942 3319 3395 3527
2647 2528 2676 2586 3199 3256 3579 3629 3930 3955 3740 3527 2637 1963 2839 3314 3494 3740 3385 3403 3418 3425
2715 2756 2765 2826 3277 3643 3760 3838 3987 3941 3918 3638 2164 1290 921 1977 2906 3415 3728 3867 3965 3932
3146 3153 3179 3211 3544 3763 3865 4080 4223 4114 4035 3977 3793 1517 509 545 1971 2823 3275 3679 4016 3471
3496 3449 3616 3706 3741 3914 3955 4008 4174 4275 4288 4216 4080 2344 833 27 2303 2444 2890 3581 3813 4108
3582 3743 3927 3968 3992 4080 4111 4138 4173 4311 4440 4423 4283 2119 1321 95 2308 2358 3164 3359 3394 3507
3725 3956 4004 4079 4207 4353 4268 4250 3707 4116 4362 4032 4562 3343 507 299 2290 2709 2433 3445 3840 2753
3965 4135 4187 4331 4378 4417 4381 3702 4356 4199 4285 4371 4085 4384 1444 0 3083 2542 2359 2197 1930 2236

GFSNIL_con_sbcape_054.txt.gz
CAPE
2130 983 1259 2149 1395 2169 1929 1830 2625 3166 2742 3324 3277 3199 3339 2713 2754 2954 3067 3072 3075 2661
1967 1786 757 1615 2109 2256 2074 1772 2696 2876 3369 3243 3213 2918 3410 2710 2901 3155 3278 3224 3494 3210
991 1543 1617 601 1661 1628 2803 2596 2857 3060 2878 3165 3395 3274 3465 2930 2992 3475 3007 2767 3181 3314
1263 1185 998 1587 538 2529 1910 3855 3283 3613 3248 2900 2952 3459 3681 3107 2973 3143 3321 3534 3680 3518
1615 1224 1139 644 2176 1973 3313 2782 4287 3302 3819 3032 3009 3089 3202 3196 2062 2772 3186 3287 3293 3562
1650 1748 1662 1189 1175 2358 2180 3048 2535 3637 3050 3246 2682 2857 3185 3198 2892 2872 3219 3109 3417 3319
1752 1659 1390 1862 1282 2126 2709 2522 2796 2762 3212 3106 2704 2534 2972 3272 3160 3005 2811 3377 3002 3438
2214 1902 1685 1705 1943 1549 2086 2545 2854 2844 3113 3108 2845 2330 2499 2735 3191 3169 3102 3035 3253 3267
2166 2090 2106 1799 2045 2206 2128 2561 2852 3060 3067 3275 2767 2065 1410 2084 2401 3261 3140 3100 3110 3545
2309 2451 2165 2374 1919 2436 2329 2526 2847 3080 3255 3273 3198 1901 836 774 2043 2465 3005 3401 3275 3293
2384 2385 2499 2294 2424 2131 2523 2550 2877 3142 3273 3424 3349 2566 712 59 1335 2131 2715 2895 2872 3191
2224 2420 2405 2376 2355 2335 2675 2848 2888 3135 3417 3450 3497 2670 1701 3 979 1639 1947 2073 2275 3091
2210 2706 2564 2542 2575 2650 2837 2980 3009 3127 3307 3348 3558 3003 1102 102 1820 1824 1910 2306 2571 2301
2880 2731 3071 3139 3107 3104 3238 3218 3306 3238 3357 3659 3534 3667 1094 0 2155 2210 2327 2260 2315 2608

GFSNIL_con_sbcape_057.txt.gz
CAPE
699 75 352 867 913 1217 1296 1106 1678 1463 1623 1302 1659 1578 1536 1214 1369 1635 1263 1275 1769 1198
1079 116 176 370 495 349 736 977 1244 1719 1494 1751 1759 1748 1760 1125 1596 1654 1730 1308 1151 1823
352 931 106 149 394 571 274 625 1352 2050 1564 2008 1706 1412 2002 1204 1633 1403 1744 1820 1850 1565
106 697 610 168 6 522 392 1753 1927 1931 2022 2111 2007 1829 1669 1396 1798 1437 1711 1770 1578 1735
248 226 565 397 69 0 613 660 1857 1964 1846 1746 1709 1986 1911 1865 1770 1660 1868 1969 1733 1796
671 136 368 149 317 15 735 548 1455 1720 1742 1760 1650 1598 1868 1879 1865 1666 1773 1908 2047 2008
749 660 78 122 1 740 283 1849 1404 2100 1609 1803 1422 1676 1723 1977 2033 1897 1747 2158 1968 2012
914 661 630 204 143 0 1117 553 1430 1498 2090 1720 1858 1525 1573 2132 2081 2048 2034 1749 1946 2152
1102 891 772 741 846 212 107 1461 1011 1247 1637 2087 2048 1943 1502 1539 2072 2200 2156 2183 1957 2210
1202 1191 909 835 715 1025 328 465 1497 1633 1728 1780 2102 2001 1500 927 1435 1496 2167 2182 2126 2102
1321 1324 1278 1106 843 942 1089 740 830 1423 1814 1880 1969 2190 1108 477 769 1328 1426 2197 2240 2179
1295 1355 1464 1176 1200 898 1195 1311 1113 1466 1768 2020 2101 1986 1415 35 39 787 1246 1548 1793 2050
1231 1493 1494 1419 1236 1425 976 1133 1515 1368 1700 2067 2151 2072 1049 19 898 377 697 982 1156 1718
1309 1491 1544 1589 1461 1369 1462 1263 1365 1623 1648 2009 2133 2333 1066 8 1504 1302 851 887 1020 1341

GFSNIL_con_sbcape_060.txt.gz
CAPE
13 0 152 222 593 919 1145 1224 1396 955 1042 1185 831 712 672 797 724 1049 722 752 1106 779
626 61 9 486 691 756 882 799 1296 964 1089 977 1079 897 841 645 738 939 1102 817 493 872
189 678 0 10 215 598 603 743 961 1186 1012 1024 1031 1070 1030 653 811 946 901 1195 1348 812
15 241 461 0 0 96 145 273 656 1344 1083 1131 1214 899 1302 833 732 1037 880 1070 1060 1248
0 38 520 378 1 0 117 618 1051 1464 1244 1201 1351 1048 879 1163 1128 1153 1011 1087 1291 1367
121 0 95 463 236 0 0 75 1342 1429 1549 1378 1376 1400 1240 1103 1103 1025 1135 1191 1318 1324
566 149 0 111 271 201 0 0 377 1483 1365 1298 1295 1259 1375 1233 1174 1148 1114 1205 1282 1464
572 611 176 0 107 2 163 13 134 856 1379 1346 1206 1090 965 1139 1221 1229 1241 1264 1326 1541
499 662 608 207 0 0 0 337 194 984 1237 1234 1418 1207 1136 1163 1292 1323 1382 1397 1337 1280
990 757 633 578 218 27 4 0 527 327 1080 1461 1358 1388 723 777 1180 1456 1566 1531 1559 1535
1216 1065 823 618 634 430 322 11 0 718 525 921 1402 1652 677 368 857 1001 1141 1672 1779 1710
1450 1253 1039 825 718 700 749 602 37 293 1242 1078 1026 1051 675 26 649 968 977 913 1289 1638
578 1320 1160 1090 891 839 695 791 784 428 375 1129 1495 1288 468 1 1025 810 761 845 908 1095
73 736 1269 1221 1166 1061 928 823 948 945 790 893 1135 1324 374 0 1190 1384 869 583 679 757

GFSNIL_con_sbcape_063.txt.gz
CAPE
0 3 52 88 81 333 626 976 965 747 802 673 486 676 370 701 603 831 358 713 898 242
0 0 0 68 144 222 576 862 950 843 840 886 834 592 488 597 613 681 770 572 276 442
80 4 0 0 216 396 501 569 832 1007 723 863 908 828 611 537 447 501 717 975 892 421
4 195 76 0 0 51 323 462 514 1005 941 785 883 885 903 732 507 830 770 653 935 919
0 0 251 19 0 0 0 2 209 562 1031 886 907 851 949 1097 1076 687 825 868 835 1029
0 0 0 154 75 0 0 0 269 609 996 913 907 1006 812 831 1016 1002 957 1020 963 948
84 0 0 0 46 42 0 0 0 870 1139 1143 986 1059 1116 991 885 878 941 986 1040 1194
267 105 0 0 0 0 0 0 0 73 1091 1112 1140 1172 1115 1200 1137 1066 976 986 1039 1141
292 299 93 0 0 0 0 0 0 0 56 974 1210 1236 1129 1144 1120 1029 1027 961 880 1029
263 312 433 186 0 0 0 0 0 4 132 200 727 1156 797 344 901 835 919 993 1018 1009
466 306 416 475 208 0 0 0 0 0 24 385 538 748 534 130 615 984 937 1028 1091 1134
721 713 465 499 478 348 53 0 0 0 0 4 250 580 321 0 367 715 826 787 916 1284
417 952 910 728 561 494 384 217 85 1 0 0 134 107 59 0 743 850 923 958 735 650
4 12 928 988 766 617 548 532 513 461 84 0 221 576 0 0 713 858 853 843 859 805

GFSNIL_con_sbcape_066.txt.gz
CAPE
0 14 38 49 49 105 403 739 885 820 659 497 543 447 248 621 937 733 607 1058 1087 513
0 0 7 30 66 89 307 627 906 707 774 695 553 640 632 613 639 756 1008 708 635 835
0 0 0 0 55 182 249 528 853 1012 844 857 1037 637 663 589 573 684 765 1057 957 640
0 0 0 0 0 208 325 439 637 981 949 888 863 1069 852 796 721 759 760 707 1159 1295
18 36 0 0 0 0 150 278 651 699 1005 929 897 749 1093 1036 1143 812 908 1071 908 1175
0 0 108 49 0 0 0 0 93 409 755 1037 1036 1039 1053 1152 1267 1225 1036 1040 1105 1231
3 0 0 17 25 0 0 0 0 233 549 895 976 1065 1147 1034 1119 1201 1215 1233 1252 1372
2 0 0 0 0 32 0 0 0 8 496 947 1075 974 1165 1220 1139 1110 1146 1244 1223 1221
180 59 0 0 0 0 22 0 0 0 71 594 927 1102 865 990 1320 1309 1311 1318 1265 1376
301 289 209 24 0 0 0 5 0 0 0 163 481 561 719 311 1242 1257 1296 1374 1383 1146
175 275 321 300 27 0 0 0 3 8 3 2 73 156 74 28 737 1118 1028 1088 1142 1199
296 260 277 369 430 175 0 0 0 0 1 37 62 0 0 0 382 682 983 995 1115 1236
119 647 500 283 401 417 322 85 2 9 0 0 18 0 0 0 189 284 480 861 953 477
4 35 789 813 561 571 545 507 297 150 90 0 0 9 0 0 273 358 309 485 757 1037

GFSNIL_con_sbcape_069.txt.gz
CAPE
1136 1014 1057 1390 1089 1234 1312 1544 2111 2235 2207 1981 1900 1742 1819 1838 1754 1788 1753 2200 2279 1608
1107 1101 1215 1262 1352 1132 1481 1356 1933 2203 2228 2053 1981 2009 1944 1596 2049 2257 2191 1906 2090 1867
789 989 1106 1288 1489 1385 1495 1673 1643 2012 2194 2241 2218 2110 2101 2001 2009 2131 1896 1776 2197 2039
629 617 814 862 1244 1572 1684 1791 1922 2067 2085 2279 2256 2356 2320 2108 1938 2127 2076 2008 2099 2244
900 676 578 690 816 1328 1645 1730 2003 2066 2222 2354 2287 2343 2425 2296 1868 2012 2062 2017 2071 1913
749 751 740 812 726 876 1186 1596 1611 2152 2298 2389 2390 2456 2412 2378 2335 2279 2029 1998 2172 2127
578 780 865 1340 1055 798 1085 1121 1304 1621 1928 2323 2436 2434 2400 2437 2484 2468 2269 2194 2147 2175
863 795 500 758 1435 1121 946 1078 1175 1143 1272 1525 1639 1670 2190 2370 2371 2354 2373 2305 2247 2150
1203 1202 1141 1070 1005 1412 1179 1057 1165 998 1053 1170 935 478 853 1625 2183 2329 2353 2397 2357 2285
1021 1174 1335 1011 1095 1315 1310 1386 1256 1015 1125 1398 1557 475 238 404 1548 2134 2490 2519 2436 2243
830 954 1170 1062 1144 1274 1062 1303 1374 1126 1209 1336 1209 432 4 0 1314 2078 2033 2242 2508 2516
805 880 934 1085 1469 1158 912 977 988 993 1197 1221 1236 73 0 0 927 1221 2222 2160 2195 2513
659 464 1256 1096 1188 1249 1230 980 817 723 861 721 1257 488 0 0 295 792 864 1696 2303 1098
48 402 365 605 1576 1317 1299 1335 1298 1025 1069 1062 794 939 0 0 455 578 806 636 635 680

GFSNIL_con_sbcape_072.txt.gz
CAPE
1862 1563 1456 1380 806 1183 1153 1360 1720 1967 1628 1797 1767 1668 1679 1622 1329 1441 1735 1831 2094 1171
1963 1788 1189 1266 1411 1138 1225 1204 2083 1545 1496 1513 1952 2082 2284 1786 1811 1672 2015 1664 1727 1883
1775 1885 1707 1583 1720 1411 1107 1611 1635 2226 2015 1682 1987 2395 2501 1508 1936 1919 1548 1198 1884 2220
1548 1579 1767 1685 1730 1784 1522 1653 2127 2219 2316 2188 1921 2210 2768 2080 1686 2362 2063 1669 1754 2273
1673 1531 1350 1610 1563 1624 1719 1709 2158 2562 2368 2460 2174 2516 2576 2086 1656 1880 1929 2138 1962 1977
1404 1419 1431 1361 1544 1506 1593 1732 1837 2121 2494 2403 2333 2771 2804 2255 2044 2262 2152 2150 2106 2212
1256 1276 1417 1499 1538 1509 1616 1649 1755 1978 2189 2280 1790 2225 2486 2677 2293 2218 2118 2437 2370 2129
1312 1370 1402 1542 1787 1723 1648 1622 1621 1624 1765 2043 2112 1563 2156 2626 2517 2636 2535 2603 2718 2425
1500 1574 1598 1592 1538 1796 1888 1869 1761 1636 1439 1436 1282 928 1063 1782 2514 2531 2586 2576 2790 2712
1125 1572 1695 1779 1788 1704 1626 2045 2299 1862 1772 1957 1830 495 180 725 1475 1744 2156 2442 2407 2478
710 1050 1545 2168 1931 1868 1812 1854 1994 2169 2489 2469 2060 727 177 0 1299 1796 2266 2183 2238 2856
39 1082 1209 1397 2062 1969 2043 1921 1759 1772 2302 2576 2563 669 273 0 1055 1059 2086 2333 2662 2908
71 94 548 1279 2072 2548 2165 2021 1764 1765 1856 1518 2258 1457 32 0 787 1178 690 1653 2514 1599
1 24 5 409 1746 1843 2300 2563 2397 2111 2148 1947 1808 1781 35 0 894 839 880 731 461 484

GFSNIL_con_sbcape_075.txt.gz
CAPE
2424 1598 1226 1593 1605 1325 1704 1041 3035 1932 1633 1725 2089 1784 1836 1829 1345 2523 1506 1256 2329 2250
2612 2393 1577 2537 1702 1506 2317 1122 2014 1866 1781 1761 1773 1987 2437 1585 2173 2662 2046 1667 1905 2191
2246 2383 2085 1587 1909 1709 2042 1443 1366 1940 2027 1778 1698 1846 2244 2598 2505 2008 1605 979 3049 2947
2099 2163 2277 1847 1771 1909 1588 1752 1735 2864 2198 2143 1980 1936 2756 3138 2086 1944 2309 2656 1692 2683
2030 2103 1980 2193 2029 2325 2458 1825 2050 2121 2199 2248 2192 2502 2685 2136 1509 1978 1999 2268 2885 1770
1846 1952 2001 2073 2101 2704 2557 2298 1505 2247 2553 2055 2101 2900 2758 2816 2196 2047 1939 2014 2429 2310
1841 1877 1857 2308 2750 2044 2923 2599 2451 2408 2850 2526 1935 2065 2358 2781 2666 2636 2386 2361 2565 2463
1709 2046 1774 2240 2894 2595 2847 2764 2648 2670 2765 2404 2123 1505 2798 2687 2676 2814 2896 2912 2602 2999
1479 1827 2315 2297 2282 2810 3027 3201 3276 2544 2659 2666 1419 855 875 1732 2822 3262 3564 3659 3784 3684
565 1545 1633 2404 2471 2712 2734 3027 3600 3194 2843 3115 2970 1033 183 757 1622 2709 3355 3268 3788 2801
0 113 847 1985 1945 2373 2610 2612 2996 2997 3528 3591 3104 1548 522 30 2208 2387 2611 2981 3396 3547
0 0 27 81 1275 2609 2367 2242 2243 2547 3291 3621 3618 1795 850 0 1263 1424 2375 2660 2655 2982
0 0 9 22 0 832 2333 2165 1960 2321 2564 2469 3268 2538 1463 0 1389 1545 1581 1995 2361 1387
0 0 0 2 0 66 629 2011 2264 2031 2527 2968 2692 3073 1291 15 1671 1737 1608 1515 1511 1429

GFSNIL_con_sbcape_078.txt.gz
CAPE
2665 1995 1633 713 1731 1120 320 1303 2102 2417 2930 2915 2650 2695 2911 2856 2748 2969 2598 2635 2913 2954
2545 2294 2486 2568 3304 1543 593 1724 1514 2138 2569 2709 2001 3076 2801 1935 2514 2486 2390 3175 2743 2854
2769 2979 2838 2997 3087 2817 625 233 343 419 1529 2784 2104 2290 2609 2735 1292 2114 1701 1978 2819 3080
2605 2780 2827 2833 3232 2870 2394 527 24 0 0 1387 2734 3045 2972 2205 1847 2275 2392 3174 2794 2866
2798 2771 2920 2873 2868 3315 3148 2959 923 0 8 1454 2456 2515 2862 2413 2095 2093 2568 2776 2428 2771
2534 2820 2833 3131 2910 3163 3237 3145 2555 2655 3267 3096 2424 2679 2368 2858 2826 2155 2308 2971 3135 2851
2376 2389 2425 2940 2987 2790 3321 3007 2781 2901 3099 2794 2901 2863 2644 2683 2957 2477 2513 2824 2991 3089
133 2389 3128 2904 2707 3013 2910 2960 2987 2886 2644 2841 2499 2046 2613 2977 2803 2353 2132 2364 2680 2936
343 857 1377 2278 2629 3405 3012 2943 2802 2880 2788 2523 2362 1350 873 2093 2694 2831 2869 2422 2860 3230
1 7 286 1540 2471 3029 2994 3037 2933 2888 2845 2796 2660 1643 245 159 1933 2666 2932 2912 2711 2710
0 0 29 295 81 939 2534 2778 2769 2670 2853 3051 2905 2134 1559 154 961 2099 2056 2506 2804 2678
0 0 0 40 54 85 718 1938 2238 2231 2442 2785 2984 2359 1382 704 956 1201 1727 2027 2090 2083
0 0 0 0 0 11 164 490 1574 1961 2189 2058 2505 2682 2099 252 1337 1533 1305 1230 1530 1563
0 0 0 0 0 1 2 72 539 698 1930 2037 2185 2398 1849 453 1799 1909 1742 1568 1402 1249

GFSNIL_con_sbcape_081.txt.gz
CAPE
803 415 320 338 189 649 262 837 1094 1485 1368 1134 1029 1123 1181 995 1360 1316 984 477 960 1545
860 829 345 15 31 580 63 791 766 778 1319 1276 1227 1181 1392 857 1094 1174 1083 1233 1380 1003
1710 1293 1106 886 917 700 633 506 174 34 151 917 1257 1524 1336 1091 935 929 643 536 643 1245
1618 1510 1299 1376 1400 824 389 27 25 3 0 38 1070 1233 1238 1006 1074 967 860 1140 1637 1387
1740 1733 1628 1608 1264 1357 589 388 44 0 0 0 615 1227 1327 1166 1107 1013 1112 1057 1462 949
1454 1674 1592 1681 1803 2014 739 190 0 0 0 357 750 1111 1388 1311 1598 1179 1110 1039 1296 1386
9 81 697 1744 2113 2108 2094 1533 1134 1179 1129 1240 1281 1199 1591 1373 1209 1486 1315 1339 1581 1577
28 0 0 150 1048 1944 2085 2169 1962 1656 1890 1715 1557 1801 1821 1541 1213 1330 1299 1430 1465 1600
0 111 176 110 356 1005 1547 1924 2117 1975 1802 1716 1896 1493 1477 1567 1735 1695 1429 1111 1052 1486
1 0 0 64 38 18 1008 1455 1800 1921 2049 1803 1660 1768 842 154 1367 1933 1656 1294 1294 1419
0 0 0 10 11 0 112 494 1527 1388 1534 1785 1941 2001 1722 738 5 320 1468 1969 1946 1740
0 0 0 0 0 0 1 20 285 1214 1428 1382 1348 1701 1628 490 333 381 538 1007 1417 1761
0 0 0 0 0 0 0 0 0 163 344 1256 1320 1508 1623 764 343 431 819 646 767 1245
0 0 0 0 0 0 0 0 0 0 34 312 1299 1426 1523 1094 237 1131 794 1163 1094 716

GFSNIL_con_sbcape_084.txt.gz
CAPE
153 35 0 62 324 300 565 578 775 929 885 845 842 674 586 667 748 800 962 280 571 769
527 301 299 210 65 115 258 378 564 1050 1044 945 650 585 970 595 640 803 672 599 809 695
580 609 375 172 8 163 107 743 620 789 946 933 932 739 923 808 404 491 406 176 274 423
1056 830 730 726 632 618 339 500 256 105 126 285 591 984 1082 616 671 675 537 317 1106 947
433 781 984 922 940 582 382 164 111 12 0 0 78 603 885 702 948 856 733 741 568 861
59 364 522 816 990 865 504 414 182 29 0 0 11 314 904 859 828 726 830 733 624 858
3 0 0 116 372 625 564 412 185 48 5 0 16 322 697 959 844 1073 1102 799 792 833
9 3 64 24 0 0 241 801 369 252 251 187 570 773 745 1111 856 739 788 1038 1102 1157
0 0 0 31 14 6 23 482 977 1052 1111 1320 1602 1396 1341 1199 1154 763 718 768 790 826
0 0 0 1 23 0 5 96 457 981 1013 1156 1173 1513 1474 739 641 1100 1095 1004 844 704
0 0 0 0 0 0 4 30 78 260 625 835 1123 1209 1240 391 28 235 918 1307 1090 877
0 0 0 0 0 0 0 0 0 0 75 208 483 859 614 79 165 103 83 221 731 1382
0 0 0 0 0 0 0 0 0 0 0 0 18 155 519 441 137 324 373 467 303 406
0 0 0 0 0 0 0 0 0 0 0 0 0 1 84 388 71 600 882 282 665 764

GFSNIL_con_sbcape_087.txt.gz
CAPE
104 3 0 69 160 267 434 498 566 629 612 394 442 194 233 662 712 588 769 373 486 572
115 35 0 0 83 176 231 309 361 538 802 577 549 362 588 417 371 510 481 394 447 479
273 211 104 100 86 50 80 121 356 614 779 742 669 310 405 587 248 344 263 106 144 95
347 329 241 150 69 0 39 125 474 432 557 680 690 670 726 705 545 430 297 150 410 771
289 514 541 340 444 384 511 211 142 171 119 110 162 400 752 851 791 523 478 432 289 416
0 33 205 319 476 446 447 194 58 72 38 12 0 87 455 714 701 516 492 389 409 447
2 0 0 0 0 78 296 370 157 39 0 0 0 5 189 492 621 639 706 758 493 260
2 0 0 10 0 0 0 109 509 206 59 0 0 39 83 352 689 609 549 608 756 729
0 0 0 14 0 0 0 34 70 340 428 366 499 489 534 567 628 768 656 608 512 485
1 1 0 0 0 0 0 0 0 0 170 488 603 1022 978 688 569 916 778 694 688 672
0 0 0 0 0 0 0 0 0 0 0 17 197 81 4 1 3 189 283 567 806 779
0 0 0 0 0 0 0 0 0 0 0 0 0 0 0 1 13 88 187 113 156 652
0 0 0 0 0 0 0 0 0 0 0 0 0 0 0 0 2 153 168 330 257 210
0 0 0 0 0 0 0 0 0 0 0 0 0 0 1 1 1 13 188 391 386 459

GFSNIL_con_sbcape_090.txt.gz
CAPE
0 43 22 41 140 300 430 525 650 743 696 557 372 211 337 676 804 894 907 726 852 890
40 0 0 0 60 174 257 394 511 587 699 669 547 468 424 594 657 661 618 705 632 719
103 0 0 15 15 80 115 295 216 458 570 550 577 532 522 635 383 558 425 338 331 402
175 178 157 67 76 55 26 27 80 307 582 687 416 652 448 583 622 542 419 288 481 804
258 304 351 122 230 292 242 107 99 208 401 519 569 617 799 828 951 662 639 506 396 511
0 0 35 83 195 252 401 330 121 125 98 54 40 119 412 690 567 622 381 707 552 654
2 0 0 0 0 0 138 386 247 171 118 74 15 0 24 411 632 558 525 292 644 617
0 0 0 0 0 0 0 11 239 420 215 114 39 36 48 144 530 778 739 689 799 745
1 0 0 0 0 0 0 0 14 50 272 444 531 342 45 41 560 852 822 915 964 749
1 1 0 0 0 0 0 0 0 0 0 0 113 0 0 0 48 730 1024 1053 936 951
0 0 0 0 0 0 0 0 0 0 0 0 0 0 0 1 2 101 409 697 939 986
0 0 0 0 0 0 0 0 0 0 0 0 4 0 0 0 1 130 254 375 346 442
0 0 0 0 0 0 0 0 0 0 0 0 0 0 0 0 3 4 78 280 403 208
0 0 0 0 0 0 0 0 0 0 0 0 0 0 0 0 0 0 3 8 51 77

GFSNIL_con_sbcape_093.txt.gz
CAPE
1113 922 1095 1193 1239 1174 1747 2423 1864 1852 1871 1734 1720 1639 1728 1511 1839 2166 1914 2029 2233 1757
989 1012 1087 1206 1229 1292 1472 1255 1727 1786 1709 1957 1821 1667 1504 1277 1896 2113 2018 1800 2031 1515
1224 1113 1032 857 779 1009 1197 1377 1508 1613 1711 1781 1897 1800 1738 1624 1643 1944 1760 1497 1733 1841
1067 1040 1072 1113 1159 1135 1077 920 1200 1377 1354 1703 1738 1748 1780 1700 1795 1736 1821 1644 1697 1742
758 805 1146 1338 1153 1267 1120 1041 1035 1026 1272 1293 1258 1709 1877 1755 1273 1690 1754 1796 1580 1521
131 1138 1447 1369 1377 1292 1391 1492 1415 1245 1315 1280 1249 1401 1614 1730 1633 1418 1641 1473 1758 1653
128 243 366 428 526 812 1276 1562 1549 1525 1396 1125 1066 884 771 954 1319 1490 1542 1623 1607 1770
64 189 242 283 229 224 375 652 1120 1509 1411 1288 988 717 721 665 682 994 1391 1354 1429 1713
52 1 1 103 133 123 134 181 257 624 795 828 323 0 1 77 950 1269 1464 1781 1931 1720
3 4 2 0 0 0 0 0 0 2 83 132 36 0 1 0 1031 1590 2062 2225 2377 2114
0 0 0 0 0 0 0 0 0 0 0 0 0 0 0 1 187 751 1214 1520 1681 2027
0 0 0 0 0 0 0 0 0 0 8 0 0 0 0 0 92 264 382 590 863 1030
0 0 0 0 0 0 0 0 0 0 0 0 0 0 0 0 0 0 0 94 0 0
0 0 0 0 0 0 0 0 0 0 0 0 0 0 0 0 0 0 0 0 0 0

GFSNIL_con_sbcape_096.txt.gz
CAPE
1609 682 1141 1062 913 2129 1632 1141 1621 1330 1391 1729 1784 1975 2155 1748 1465 1656 1754 1994 2367 1576
1664 1492 888 1009 1060 2793 1919 1541 1363 1081 1101 1160 1442 1837 2007 1346 1951 2105 2004 1729 1930 1858
750 736 686 1092 1261 1378 1420 1930 1406 1329 1184 1192 1307 1785 2262 1405 1657 2133 1837 1441 1499 1803
926 705 734 729 901 944 1372 1775 1961 1542 1137 1312 1134 1231 1755 1648 1556 1924 1724 1799 1745 1764
906 826 729 781 845 1190 1085 1793 1617 1561 1630 1614 1328 1545 1565 1497 1297 1666 1451 1199 1443 1566
463 620 818 987 938 1176 1422 1289 985 1125 1235 1396 1567 1399 1666 1990 1750 1418 1204 1240 1224 1447
140 246 538 766 1111 1213 1455 1602 1109 1176 1223 1313 1815 1724 1700 1774 1853 1668 1326 1311 1178 1080
204 253 370 769 875 991 1129 1246 1485 1724 1889 1908 1821 1442 1840 1592 1501 1500 1393 1373 1451 1362
288 173 153 264 439 521 578 650 1050 1254 1542 1527 1188 0 1 135 1659 1695 1700 1849 2067 1832
22 60 6 0 0 102 220 268 256 428 796 55 0 0 0 0 1174 2068 2063 2021 1962 1724
2 4 5 0 0 0 16 147 154 190 178 0 0 0 0 0 435 1402 1755 1753 1761 1956
0 0 0 0 0 0 7 36 69 99 19 0 0 0 0 0 345 732 976 541 29 31
0 0 0 0 0 0 0 3 7 7 0 0 0 0 0 0 0 0 55 329 5 0
0 0 0 0 0 0 0 1 0 3 2 0 0 0 0 0 0 0 0 0 0 0

GFSNIL_con_sbcape_099.txt.gz
CAPE
1229 950 801 1222 2211 936 884 852 2699 1745 1679 1631 2025 1960 1821 1586 1555 2527 1823 1986 3596 2281
1527 1424 1481 1387 1473 1377 1790 1855 1402 1208 1248 1443 1571 1776 1840 1453 1507 2131 2198 2119 2073 2099
1477 1275 1012 1073 1234 1390 976 1395 1608 928 1096 1165 1223 1455 1833 2307 1952 1867 1849 1560 2612 1808
1391 1623 1426 965 836 1057 1145 1466 1219 1452 1348 1344 1455 1529 2215 2473 1836 2103 2066 2383 2096 1611
961 1163 1397 914 907 916 1273 1352 1373 1507 1602 1719 1499 2032 2196 1743 1478 1775 1637 1406 1341 1453
1072 1158 1414 1544 1059 1013 1029 1427 1246 1506 1633 1504 2007 1958 1930 2099 1966 1571 1515 1279 1321 1249
265 341 589 682 790 1098 1691 1345 1365 1383 1610 1491 1515 1790 1808 1828 1854 1626 1362 1367 1363 1247
209 244 335 365 843 988 1758 1285 1322 1352 1456 1548 1461 519 493 1863 1760 1912 1766 1650 1562 1719
664 841 776 713 672 761 903 1076 1278 1375 1615 1477 0 0 0 0 2083 1618 1799 1745 2025 2375
436 364 424 392 308 194 294 835 771 936 317 10 0 0 0 0 226 1641 2248 2427 2375 1838
30 50 44 104 13 1 57 350 513 531 116 0 0 0 0 0 36 1015 1607 1511 1682 1933
0 2 2 4 94 79 333 293 316 313 59 0 0 0 0 0 426 1069 1094 272 32 560
0 0 0 3 2 5 3 82 111 0 0 0 0 0 0 0 0 98 33 728 0 0
0 0 0 0 0 0 1 14 20 10 5 0 0 0 0 0 0 0 0 0 0 0

GFSNIL_con_sbcape_102.txt.gz
CAPE
3015 1877 1867 2532 1527 322 355 127 1117 2037 2149 2592 2586 2752 2764 2726 2589 3066 3142 3082 3270 3390
2059 2214 1924 1906 2727 2048 294 58 4 0 1638 2277 1832 2097 2149 2656 2538 1074 657 1788 3306 3377
2137 2528 2145 2366 1699 1395 18 0 0 0 894 2149 1843 2402 2727 2286 2077 2100 979 1601 2285 2786
1603 1861 2013 2154 2105 1760 158 0 0 739 1877 1761 2613 2534 2724 2699 2184 1405 1547 2109 1975 1798
822 1094 1555 740 279 1471 1720 2078 2267 2652 1972 2208 1810 1920 2331 2318 2038 1949 2051 1988 2491 2265
1440 1186 1511 1499 378 321 1418 2221 2184 2203 1828 1447 1977 1533 1938 2298 2109 1873 2255 2209 2121 2211
565 624 368 584 820 1154 1222 1093 1142 1862 1652 1579 2240 1672 1627 2035 1925 2216 2128 1966 2371 2355
419 67 121 286 244 635 416 722 1035 1312 1581 229 0 0 4 63 1081 1432 2040 1979 1800 1928
790 664 560 315 275 172 170 445 599 472 893 19 1 0 0 0 905 1335 1340 2015 2498 2703
707 1026 626 512 429 371 195 148 203 312 23 0 0 0 0 0 21 1120 1390 1425 1721 1423
577 359 239 212 119 71 154 99 158 128 0 0 0 0 0 0 0 455 1432 1611 1507 1250
24 11 4 35 198 131 127 21 204 233 6 0 0 0 0 0 3 1535 1098 42 0 0
0 0 0 0 0 11 135 368 5 0 0 0 0 0 0 0 0 0 0 0 0 0
0 0 0 0 0 0 0 170 39 0 0 0 0 0 0 0 0 0 0 0 0 0

GFSNIL_con_sbcape_105.txt.gz
CAPE
921 816 810 880 200 192 103 318 421 608 752 1005 1086 1075 1158 974 1259 1147 799 815 1444 980
1048 830 864 864 450 539 454 297 155 57 0 51 968 1260 1248 1018 827 724 430 30 884 1569
958 1113 982 716 117 101 14 20 82 0 0 47 953 927 994 1191 929 698 45 3 1156 958
905 929 872 771 598 44 0 0 0 0 124 871 1043 1180 1005 981 878 722 833 901 1040 832
665 65 639 173 147 235 204 79 75 550 1192 948 1005 979 1239 1301 1251 924 759 747 918 838
42 118 564 345 26 156 647 761 1032 863 1032 955 813 797 935 1049 908 836 881 697 893 932
218 174 274 317 310 329 212 247 560 746 985 653 112 38 57 198 554 780 973 1031 872 971
115 23 33 27 20 22 31 96 359 634 12 0 0 0 2 1 44 761 692 764 890 553
236 100 111 149 56 27 23 3 161 3 0 0 0 0 0 0 0 348 824 680 420 327
358 271 363 350 211 22 1 31 36 0 0 0 0 0 0 0 0 29 357 548 696 137
243 109 85 44 19 0 2 11 0 0 0 0 0 0 0 0 0 55 38 0 5 0
15 0 2 0 13 19 16 7 0 0 0 0 0 0 0 0 0 55 0 0 0 0
0 0 0 0 0 0 0 1 0 0 0 0 0 0 0 0 0 0 0 0 0 0
0 0 0 0 0 0 0 0 0 0 0 0 0 0 0 0 0 0 0 0 0 0

GFSNIL_con_sbcape_111.txt.gz
CAPE
181 152 124 86 24 140 206 114 62 218 518 301 235 0 477 474 495 663 285 94 405 355
207 175 190 136 48 59 131 69 102 255 280 378 494 491 462 377 271 274 84 0 59 591
128 175 216 259 215 66 98 179 0 120 35 9 35 265 566 461 294 179 109 0 46 145
230 189 196 228 198 137 78 14 11 39 0 0 29 234 427 335 349 276 96 218 325 246
301 298 248 177 101 43 0 0 0 0 0 0 356 385 428 348 667 436 350 182 129 257
248 256 141 112 134 81 12 0 0 0 65 354 352 309 263 386 503 525 522 436 356 325
218 210 125 144 24 22 67 38 131 144 252 162 0 0 0 27 151 217 383 457 477 454
252 267 167 134 37 29 16 19 42 59 1 0 0 0 0 0 0 19 57 410 359 59
162 135 92 27 20 20 0 1 57 0 0 0 0 0 0 0 0 0 195 309 37 0
25 60 30 39 58 30 14 23 1 0 0 0 0 0 0 0 0 1 93 201 115 0
84 142 223 179 88 14 17 0 0 0 0 0 0 0 0 0 0 0 1 0 0 0
157 93 33 1 0 0 1 0 0 0 0 0 0 0 0 0 0 0 0 0 0 0
52 4 0 0 0 0 0 0 0 0 0 0 0 0 0 0 0 0 0 0 0 0
1 0 0 0 0 1 0 0 0 0 0 0 0 0 0 0 0 0 0 0 0 0

GFSNIL_con_sbcape_114.txt.gz
CAPE
23 31 50 94 128 166 190 194 152 204 634 442 173 0 26 534 507 695 587 472 734 722
90 63 71 82 36 37 146 136 113 211 543 435 522 459 509 528 363 348 203 86 195 851
58 109 67 141 138 115 84 90 74 140 153 186 127 365 571 687 512 346 150 0 142 453
55 69 86 155 108 71 116 147 117 49 91 1 10 186 412 468 544 418 309 324 291 592
129 196 172 131 103 3 3 1 2 53 38 0 26 476 533 453 675 634 553 388 311 365
203 212 219 146 76 0 0 0 0 0 0 39 495 565 471 435 355 732 706 754 521 638
195 211 99 78 75 55 0 0 35 55 181 271 194 120 96 71 195 211 470 614 658 663
146 186 165 113 70 93 79 11 4 34 42 1 0 0 0 0 0 6 220 309 625 332
148 109 155 137 90 79 69 25 37 0 0 0 0 0 0 0 0 0 47 308 372 1
104 101 123 85 48 34 17 12 9 0 0 0 0 0 0 0 0 0 25 161 57 0
44 33 26 41 67 41 20 2 0 0 0 0 0 0 0 0 0 1 0 0 0 0
28 53 69 83 41 3 1 0 0 0 0 0 0 0 0 0 0 0 0 0 0 0
48 75 10 1 2 5 0 0 0 0 0 0 0 0 0 0 0 0 0 0 0 0
1 1 1 2 3 4 0 0 0 0 0 0 0 0 0 0 0 0 0 0 0 0

GFSNIL_con_sbcape_117.txt.gz
CAPE
1167 910 975 1327 1499 1222 1161 1208 1417 1567 1955 2111 1592 1310 889 1096 1692 1778 1979 2065 2138 1925
1112 1059 991 1195 1125 1074 1233 1109 1241 1128 1383 1793 1720 1369 1456 1064 1693 1741 1725 1464 1306 1843
1000 1260 1215 1214 1318 1281 1014 1056 1273 1041 1112 1529 1724 1786 1753 1979 1891 1961 1590 1205 813 1369
928 978 1240 1283 1446 1496 1173 1067 938 1007 1025 1185 1255 1259 1515 1761 1751 1886 1616 1472 1330 1542
1054 1110 1162 1354 1327 1137 1183 967 990 877 765 752 974 880 1258 1420 1255 1588 1631 1517 1472 1402
1010 1140 1270 1337 1237 1036 1049 891 647 416 336 861 727 705 1285 1803 1755 1457 1520 1429 1506 1430
1202 1285 1341 1313 788 591 664 751 875 865 869 701 860 1525 1677 1310 1320 1336 1304 1329 1540 1705
1566 1197 1236 761 731 410 420 453 495 546 701 992 925 677 525 698 788 856 938 1097 1347 1354
974 595 781 595 615 483 306 191 459 275 0 4 20 0 0 0 106 183 320 859 1049 247
244 430 208 189 305 360 141 69 187 62 0 0 0 0 0 0 0 3 229 658 1262 99
56 26 93 112 134 133 99 76 14 0 0 0 0 0 0 0 0 48 3 1 77 6
68 51 18 5 51 82 126 17 0 0 0 0 0 0 0 0 6 0 0 0 0 0
37 102 127 92 24 2 2 2 2 0 0 0 0 0 0 0 3 0 0 0 0 0
1 3 9 3 4 3 2 6 10 0 0 0 0 0 0 0 0 0 0 0 0 0

GFSNIL_con_sbcape_120.txt.gz
CAPE
1295 1515 949 879 1102 797 937 934 1021 1349 1477 1547 1872 1809 1913 1436 1593 1523 1939 2226 2393 1501
1935 1672 1091 1252 1649 1279 2433 2043 1700 1685 1524 1323 1456 1460 1616 1269 1388 1784 2004 1600 2010 1791
1310 1596 1544 1560 1883 1316 1399 1698 1592 1789 1736 1707 1766 1861 2157 1417 1647 1751 1455 1167 1268 1789
1099 1172 1436 1378 1653 1855 2179 1889 1869 2035 1917 1824 1804 1859 2179 1977 1486 1765 1650 1602 1488 1625
1325 1329 1117 1435 1449 1817 2054 1982 2032 1951 1811 1568 1687 1731 1910 1908 1280 1508 1502 1339 1391 1294
1380 1433 1196 1452 1493 1760 1781 1786 1463 1490 1557 1508 1492 1527 1582 1699 1475 1481 1412 1251 1355 1310
1445 1311 1279 1551 1690 1702 1707 1689 1595 1615 1547 1388 1175 1297 1537 1434 1395 1358 1276 1460 1348 1318
1637 1616 1690 1582 1716 1619 1444 1238 1169 1171 1150 1402 1433 1074 1430 1486 1373 1335 1389 1459 1546 1119
1850 1919 1847 1428 1690 1449 1036 943 936 906 977 996 551 0 0 0 360 963 1122 1159 1126 1364
1655 1392 1815 1598 1449 1010 755 1037 838 798 702 186 26 0 0 0 0 199 459 945 1191 1285
517 799 1114 271 252 215 288 287 389 351 206 91 0 0 0 0 0 157 356 223 797 1062
243 380 169 92 99 142 165 191 15 1 0 0 0 0 0 0 83 30 0 0 0 0
384 284 89 67 22 56 28 2 3 2 0 0 0 0 0 0 175 170 120 7 0 0
1 1 71 84 12 2 2 2 3 4 2 0 0 0 0 0 50 67 93 48 8 0